User: anonymous
Location: Unspecified
(0.0000°N, 0.0000°E)
Time: 14:45:59
(UTC+00:00)
Language:

ELEKTRO-L - Orbit

View from above orbital plane
View from above orbital plane
View from above satellite
View from above satellite

Ground track
Ground track

The orbit data is extracted from the following two-line orbital elements,

1 37344U 11001A   14210.10224684 -.00000108  00000-0  00000+0 0   157
2 37344 000.3094 079.9395 0000441 104.2294 235.2449 01.00277986 12947
Epoch (UTC): 29 July 2014 02:27:14
Eccentricity: 0.0000441
inclination: 0.3094°
perigee height: 35782 km
apogee height: 35786 km
right ascension of ascending node: 79.9395°
argument of perigee: 104.2294°
revolutions per day: 1.00277986
mean anomaly at epoch: 235.2449°
orbit number at epoch: 1294

The dashed part of the orbit path shows where the satellite is in the earth's shadow,  

DLR